Flag for Vietnam Weather past 2 weeks in Hanoi, Vietnam

68 °F

Light rain. Passing clouds.

Feels Like: 68 °F
Forecast: 67 / 72 °F
Wind: 7 mph from North

Location: Ha Noi Airport

Current Time: Oct 10, 2015 at 8:41:27 PM

Latest Report: Oct 10, 2015 at 8:00 PM

Visibility: N/A

Pressure: 30.09 "Hg

Humidity: 73%

Dew point: 59 °F

Location of HanoiLocation

Historic Weather in Hanoi — Graph


Hanoi temperature yesterday

Maximum temperature yesterday: 81 °F (at 8:30 AM)
Minimum temperature yesterday: 68 °F (at 11:30 PM)
Average temperature yesterday: 76 °F

Past Weeks' High & Low Weather Summary

High95 °F (Sep 29, 1:00 PM)100% (Sep 30, 4:00 AM)30.07 "Hg (Sep 30, 4:00 AM)
Low66 °F (Oct 10, 4:00 PM)44% (Sep 29, 3:30 PM)29.59 "Hg (Sep 25, 7:00 PM)
Average82 °F74%29.84 "Hg
* Reported Sep 25 7:00 PM — Oct 10 7:30 PM, Hanoi, Weather by CustomWeather, © 2015

Note: Actual official high and low records may vary slightly from our data, if they occured in-between our weather recording intervals... More about our weather records


Hanoi weather history for previous 24 hours

Time TempWeatherWind HumidityBarometerVisibility
7:30 PM
Sat, Oct 10
68 °FLight rain. Passing clouds.6 mph73%30.07 "HgN/A
7:00 PM68 °FLight rain. Passing clouds.7 mph73%30.04 "HgN/A
6:30 PM68 °FPassing clouds.7 mph73%30.04 "HgN/A
6:00 PM68 °FPassing clouds.9 mph78%30.04 "HgN/A
5:30 PM68 °FLight rain. Partly sunny.9 mph78%30.04 "HgN/A
5:00 PM68 °FPassing clouds.10 mph83%30.01 "HgN/A
4:30 PM66 °FLight rain. Partly sunny.8 mph88%30.01 "HgN/A
4:00 PM66 °FLight rain. Partly sunny.9 mph88%30.01 "HgN/A
3:30 PM68 °FLight rain. Broken clouds.12 mph78%29.98 "HgN/A
3:00 PM68 °FBroken clouds.12 mph83%29.98 "HgN/A
2:30 PM68 °FBroken clouds.9 mph83%29.98 "HgN/A
2:00 PM68 °FPartly sunny.9 mph83%29.98 "HgN/A
1:30 PM68 °FPartly sunny.9 mph88%29.98 "Hg4 mi
1:00 PM68 °FRain. Partly sunny.9 mph88%29.98 "Hg3 mi
12:30 PM68 °FRain. Broken clouds.9 mph88%30.01 "Hg3 mi
12:00 PM68 °FRain. Broken clouds.9 mph88%30.01 "Hg4 mi
11:30 AM68 °FRain. Broken clouds.7 mph83%30.01 "Hg4 mi
11:00 AM70 °FLight rain. Broken clouds.6 mph83%30.01 "HgN/A
10:30 AM70 °FLight rain. Broken clouds.7 mph83%30.01 "HgN/A
10:00 AM70 °FLight rain. Partly sunny.9 mph83%30.01 "HgN/A
9:30 AM70 °FLight rain. Partly sunny.8 mph83%30.01 "HgN/A
9:00 AM70 °FPartly sunny.5 mph83%30.01 "HgN/A
8:30 AM68 °FLight rain. Partly sunny.5 mph88%30.01 "HgN/A
8:00 AM68 °FLight rain. Broken clouds.2 mph88%30.01 "HgN/A
7:30 AM68 °FRain. Broken clouds.2 mph88%29.98 "Hg4 mi
7:00 AM68 °FRain. Partly sunny.3 mph88%29.98 "Hg5 mi
6:30 AM68 °FRain. Broken clouds.3 mph88%29.95 "Hg4 mi
6:00 AM68 °FRain. Broken clouds.6 mph83%29.95 "Hg6 mi
5:30 AM68 °FLight rain. Partly cloudy.5 mph83%29.95 "HgN/A
5:00 AM68 °FPartly cloudy.7 mph83%29.92 "HgN/A
4:00 AM70 °FPassing clouds.7 mph78%29.92 "HgN/A
3:30 AM70 °FPassing clouds.7 mph78%29.92 "HgN/A
3:00 AM70 °FPassing clouds.7 mph83%29.92 "HgN/A
2:30 AM68 °FPassing clouds.7 mph88%29.92 "HgN/A
2:00 AM68 °FLight rain. Partly cloudy.6 mph88%29.92 "Hg6 mi
1:30 AM68 °FRain. Partly cloudy.7 mph88%29.95 "Hg3 mi
1:00 AM68 °FRain. Partly cloudy.7 mph88%29.95 "Hg2 mi
12:30 AM68 °FRain. Partly cloudy.8 mph88%29.95 "Hg2 mi
12:00 AM68 °FLight rain. Passing clouds.8 mph88%29.95 "Hg5 mi
11:30 PM
Fri, Oct 9
68 °FLight rain. Partly cloudy.9 mph88%29.95 "Hg5 mi
11:00 PM70 °FLight rain. Partly cloudy.8 mph83%29.98 "Hg5 mi
10:30 PM70 °FRain. Partly cloudy.7 mph83%29.98 "Hg3 mi
9:30 PM70 °FRain. Partly cloudy.8 mph83%29.95 "Hg3 mi
9:00 PM72 °FLight rain. Partly cloudy.9 mph78%29.95 "HgN/A
8:30 PM72 °FPassing clouds.9 mph78%29.92 "HgN/A
8:00 PM73 °FPassing clouds.12 mph74%29.92 "HgN/A
Weather by CustomWeather, © 2015

See weather overviewHow to use our weather pages